TimeCST,TemperatureF,Dew PointF,Humidity,Sea Level PressureIn,VisibilityMPH,Wind Direction,Wind SpeedMPH,Gust SpeedMPH,PrecipitationIn,Events,Conditions,WindDirDegrees,DateUTC
12:15 AM,59.0,53.6,82,30.06,10.0,North,3.5,-,N/A,,Overcast,360,2013-11-17 06:15:00
12:35 AM,59.0,53.6,82,30.06,10.0,SE,6.9,-,N/A,,Overcast,140,2013-11-17 06:35:00
12:55 AM,62.6,55.4,77,30.06,10.0,SSE,8.1,-,N/A,,Overcast,150,2013-11-17 06:55:00
1:15 AM,62.6,55.4,77,30.05,10.0,SSE,8.1,-,N/A,,Overcast,150,2013-11-17 07:15:00
1:35 AM,62.6,55.4,77,30.05,10.0,SE,10.4,-,N/A,,Overcast,140,2013-11-17 07:35:00
1:55 AM,62.6,55.4,77,30.04,10.0,SE,10.4,-,N/A,,Overcast,140,2013-11-17 07:55:00
2:15 AM,62.6,55.4,77,30.03,10.0,SE,10.4,-,N/A,,Overcast,140,2013-11-17 08:15:00
2:35 AM,62.6,55.4,77,30.03,10.0,SE,5.8,-,N/A,,Overcast,130,2013-11-17 08:35:00
2:55 AM,62.6,55.4,77,30.03,10.0,Calm,Calm,-,N/A,,Overcast,0,2013-11-17 08:55:00
3:15 AM,62.6,55.4,77,30.02,10.0,Calm,Calm,-,N/A,,Overcast,0,2013-11-17 09:15:00
3:35 AM,62.6,55.4,77,30.02,10.0,Calm,Calm,-,N/A,,Overcast,0,2013-11-17 09:35:00
3:55 AM,62.6,55.4,77,30.02,10.0,Calm,Calm,-,N/A,,Overcast,0,2013-11-17 09:55:00
4:15 AM,64.4,55.4,73,30.02,10.0,Calm,Calm,-,N/A,,Overcast,0,2013-11-17 10:15:00
4:35 AM,62.6,55.4,77,30.02,10.0,Calm,Calm,-,N/A,,Overcast,0,2013-11-17 10:35:00
4:55 AM,62.6,55.4,77,30.01,10.0,SE,4.6,-,N/A,,Overcast,130,2013-11-17 10:55:00
5:15 AM,62.6,55.4,77,30.00,10.0,ESE,4.6,-,N/A,,Overcast,120,2013-11-17 11:15:00
5:35 AM,62.6,55.4,77,30.00,10.0,SE,4.6,-,N/A,,Mostly Cloudy,140,2013-11-17 11:35:00
5:55 AM,62.6,57.2,82,30.00,9.0,SE,4.6,-,N/A,,Overcast,130,2013-11-17 11:55:00
6:15 AM,62.6,57.2,82,30.00,9.0,SE,3.5,-,N/A,,Overcast,130,2013-11-17 12:15:00
6:35 AM,62.6,57.2,82,30.00,3.0,SE,3.5,-,N/A,,Overcast,130,2013-11-17 12:35:00
6:55 AM,62.6,57.2,82,30.00,3.0,Calm,Calm,-,N/A,,Overcast,0,2013-11-17 12:55:00
7:15 AM,62.6,57.2,82,30.00,3.0,Calm,Calm,-,N/A,,Overcast,0,2013-11-17 13:15:00
7:35 AM,62.6,57.2,82,29.99,4.0,Calm,Calm,-,N/A,,Overcast,0,2013-11-17 13:35:00
7:55 AM,62.6,57.2,82,30.00,6.0,Calm,Calm,-,N/A,,Overcast,0,2013-11-17 13:55:00
8:15 AM,62.6,59.0,88,29.99,10.0,Calm,Calm,-,N/A,,Overcast,0,2013-11-17 14:15:00
8:35 AM,62.6,59.0,88,29.99,10.0,Calm,Calm,-,N/A,,Overcast,0,2013-11-17 14:35:00
8:55 AM,64.4,59.0,83,30.00,10.0,Calm,Calm,-,N/A,,Overcast,0,2013-11-17 14:55:00
9:15 AM,64.4,59.0,83,30.00,10.0,Calm,Calm,-,N/A,,Overcast,0,2013-11-17 15:15:00
9:35 AM,64.4,60.8,88,30.01,10.0,South,5.8,-,N/A,,Overcast,180,2013-11-17 15:35:00
9:55 AM,66.2,60.8,83,30.00,10.0,South,4.6,-,N/A,,Overcast,190,2013-11-17 15:55:00
10:15 AM,66.2,60.8,83,29.99,5.0,SSE,4.6,-,N/A,,Overcast,160,2013-11-17 16:15:00
10:35 AM,66.2,60.8,83,29.99,9.0,SSW,5.8,-,N/A,,Overcast,200,2013-11-17 16:35:00
10:55 AM,66.2,60.8,83,29.98,3.0,South,4.6,-,N/A,,Overcast,170,2013-11-17 16:55:00
11:15 AM,64.4,60.8,88,29.97,10.0,South,3.5,-,N/A,,Overcast,190,2013-11-17 17:15:00
11:35 AM,66.2,60.8,83,29.96,9.0,SSW,4.6,-,N/A,,Overcast,210,2013-11-17 17:35:00
11:55 AM,66.2,60.8,83,29.94,9.0,SSE,4.6,-,N/A,,Overcast,160,2013-11-17 17:55:00
12:15 PM,66.2,62.6,88,29.93,7.0,SSE,6.9,-,N/A,,Overcast,160,2013-11-17 18:15:00
12:35 PM,66.2,62.6,88,29.92,8.0,South,5.8,-,N/A,,Overcast,170,2013-11-17 18:35:00
12:55 PM,66.2,62.6,88,29.91,10.0,South,6.9,-,N/A,,Overcast,170,2013-11-17 18:55:00
1:15 PM,66.2,62.6,88,29.90,5.0,SSW,6.9,-,N/A,,Overcast,210,2013-11-17 19:15:00
1:35 PM,66.2,62.6,88,29.89,7.0,South,5.8,-,N/A,,Overcast,190,2013-11-17 19:35:00
1:55 PM,68.0,62.6,83,29.88,10.0,SSW,6.9,-,N/A,,Overcast,200,2013-11-17 19:55:00
2:15 PM,68.0,62.6,83,29.88,10.0,SSW,9.2,-,N/A,,Overcast,200,2013-11-17 20:15:00
2:35 PM,69.8,62.6,78,29.88,10.0,SW,10.4,-,N/A,,Overcast,220,2013-11-17 20:35:00
2:55 PM,69.8,62.6,78,29.88,10.0,SW,8.1,-,N/A,,Overcast,220,2013-11-17 20:55:00
3:15 PM,68.0,64.4,88,29.89,5.0,SSW,5.8,-,0.02,,Overcast,200,2013-11-17 21:15:00
3:35 PM,68.0,64.4,88,29.89,3.0,SW,4.6,-,0.02,,Overcast,220,2013-11-17 21:35:00
3:55 PM,68.0,64.4,88,29.90,5.0,SSW,4.6,-,0.02,,Overcast,210,2013-11-17 21:55:00
4:15 PM,68.0,64.4,88,29.90,3.0,SW,3.5,-,N/A,,Overcast,220,2013-11-17 22:15:00
4:35 PM,68.0,64.4,88,29.90,3.0,SSW,3.5,-,N/A,,Overcast,200,2013-11-17 22:35:00
4:55 PM,68.0,64.4,88,29.91,7.0,SW,5.8,-,N/A,,Overcast,230,2013-11-17 22:55:00
5:15 PM,68.0,64.4,88,29.91,3.0,SW,4.6,-,0.03,,Overcast,220,2013-11-17 23:15:00
5:35 PM,68.0,64.4,88,29.92,5.0,SW,3.5,-,0.03,,Overcast,220,2013-11-17 23:35:00
5:55 PM,68.0,64.4,88,29.92,9.0,SW,4.6,-,0.04,,Overcast,220,2013-11-17 23:55:00
6:15 PM,68.0,64.4,88,29.92,7.0,SW,3.5,-,N/A,,Overcast,220,2013-11-18 00:15:00
6:35 PM,68.0,64.4,88,29.92,6.0,SW,4.6,-,0.01,,Overcast,220,2013-11-18 00:35:00
6:55 PM,68.0,64.4,88,29.92,9.0,SW,3.5,-,0.01,,Overcast,230,2013-11-18 00:55:00
7:15 PM,68.0,64.4,88,29.92,10.0,SSW,4.6,-,N/A,,Overcast,200,2013-11-18 01:15:00
7:35 PM,68.0,64.4,88,29.93,10.0,SSW,5.8,-,N/A,,Overcast,200,2013-11-18 01:35:00
7:55 PM,68.0,64.4,88,29.93,10.0,SSW,3.5,-,N/A,,Overcast,210,2013-11-18 01:55:00
8:15 PM,68.0,64.4,88,29.93,10.0,SSW,4.6,-,N/A,,Overcast,200,2013-11-18 02:15:00
8:35 PM,68.0,64.4,88,29.93,10.0,SSW,3.5,-,N/A,,Overcast,210,2013-11-18 02:35:00
8:55 PM,69.8,64.4,83,29.93,9.0,SW,3.5,-,N/A,,Overcast,220,2013-11-18 02:55:00
9:15 PM,69.8,64.4,83,29.93,8.0,SW,3.5,-,N/A,,Overcast,230,2013-11-18 03:15:00
9:35 PM,69.8,64.4,83,29.94,7.0,SW,3.5,-,N/A,,Overcast,220,2013-11-18 03:35:00
9:55 PM,69.8,64.4,83,29.93,7.0,SSW,6.9,-,N/A,,Mostly Cloudy,210,2013-11-18 03:55:00
10:15 PM,69.8,64.4,83,29.93,6.0,SSW,3.5,-,N/A,,Mostly Cloudy,210,2013-11-18 04:15:00
10:35 PM,69.8,64.4,83,29.93,7.0,SW,3.5,-,N/A,,Overcast,230,2013-11-18 04:35:00
10:55 PM,69.8,64.4,83,29.93,5.0,SW,3.5,-,N/A,,Mostly Cloudy,220,2013-11-18 04:55:00
11:15 PM,69.8,64.4,83,29.93,5.0,Calm,Calm,-,N/A,,Mostly Cloudy,0,2013-11-18 05:15:00
11:35 PM,69.8,64.4,83,29.94,5.0,West,3.5,-,N/A,,Overcast,260,2013-11-18 05:35:00
11:55 PM,69.8,64.4,83,29.92,5.0,Calm,Calm,-,N/A,,Overcast,0,2013-11-18 05:55:00